{"data":{"norad_id":63466,"intl_designator":"2025-070G","name":"STARLINK-33654","alt_names":[],"object_type":"PAYLOAD","status":"ACTIVE","operator":null,"country":"US","launch_date":"2025-04-06","launch_site_code":"AFETR","launch_vehicle":null,"mission":null,"orbit_class":"UNKNOWN","rcs_meters":null,"size_class":null,"mass_kg":null,"dimensions":null,"purposes":["comms"],"wikipedia_slug":null,"has_3d_model":false,"image_url":null,"decayed_at":null,"tle_current":{"epoch":"2026-09-20T23:33:10.763712Z","epoch_age_seconds":114175,"freshness":"FRESH","line1":"1 63466U 25070G   26263.98137458 -.00005009  00000+0 -17249-3 0  9994","line2":"2 63466  43.0027 236.9103 0001453 273.7201  86.3484 15.27600555 82843","mean_motion":15.27600555,"eccentricity":0.0001453,"inclination_deg":43.0027,"raan_deg":236.9103,"arg_perigee_deg":273.7201,"mean_anomaly_deg":86.3484,"bstar":-0.00017249,"rev_number":8284,"period_min":94.265480284537,"perigee_km":481.99062626841,"apogee_km":483.98446906196,"semimajor_km":6861.1245476652,"source":"CELESTRAK","updated_at":"2026-09-21T09:00:35.008424Z"}}}